Back to catalog

COSMOS 1480

AliveNavigationLEO
NORAD 14178·PAYLOAD·🇷🇺 Russia

Launched Jul 6, 1983 from Plesetsk Cosmodrome

Loading…

Next Passes (next 24 hours)

TLE

FreshSource: Space-Track

Epoch: Sep 14, 2026, 20:59 UTC

1 14178U 83069H   26257.87452457 -.00000018  00000-0 -17477-4 0  9992
2 14178  74.0227  98.0482 0036450 242.1147 137.6740 12.43703104961093

Track COSMOS 1480 in real time with AllMySat

Download on the App Store